Location: Seattle
(47.6064°N, 122.3308°W)
Time: 02:20:21
(UTC-08:00)

A-11 Canister half - Pass Details

Date: 28 November 2020
Orbit: 1524 x 1684 km, 47.3° (Epoch: 21 January)

Event Time Altitude Azimuth Distance (km) Brightness Sun altitude
Rises 13:18:11 0° 291° (WNW) 4,860 11.6 18.6°
Reaches altitude 10° 13:21:57 10° 280° (W) 3,846 11.3 18.3°
Maximum altitude 13:29:34 27° 228° (SW) 2,691 11.7 17.9°
Drops below altitude 10° 13:37:00 10° 176° (S) 3,734 12.3 17.4°
Sets 13:40:37 0° 164° (SSE) 4,695 12.3 17.1°
